This demonstration page uses our WeatherBlox Daily Observations layout. Learn more.

Left ArrowRight Arrow

Hourly Observations for September 13, 2015

Temp ( °F °C ) Dew Point ( °F °C ) Humidity (%) Winds ( mph kmh ) Pressure ( in mb ) Visibility ( mi km ) Precip ( " mm )
12:53 am 00:53 Clear 73 22.8 55 12.8 53 53 Calm 29.86 1011 9 14 0.00 0.00
1:53 am 01:53 Clear 73 22.8 53 11.7 50 50 undefined N/A 29.85 1011 9 14 0.00 0.00
2:53 am 02:53 Clear 71 21.7 53 11.7 53 53 undefined N/A 29.83 1010 10 16 0.00 0.00
3:53 am 03:53 Clear 70 21.1 53 11.7 55 55 undefined N/A 29.83 1010 10 16 0.00 0.00
4:53 am 04:53 Clear 72 22.2 51 10.6 48 48 NNW 5 7 29.81 1009 10 16 0.00 0.00
5:53 am 05:53 Clear 70 21.1 52 11.1 53 53 Calm 29.80 1009 10 16 0.00 0.00
6:53 am 06:53 Sunny 70 21.1 53 11.7 55 55 Calm 29.81 1010 10 16 0.00 0.00
7:53 am 07:53 Sunny 71 21.7 53 11.7 53 53 Calm 29.82 1010 10 16 0.00 0.00
8:53 am 08:53 Sunny 74 23.3 53 11.7 48 48 S 7 11 29.84 1011 10 16 0.00 0.00
9:53 am 09:53 Sunny 82 27.8 51 10.6 34 34 Calm 29.84 1011 10 16 0.00 0.00
10:53 am 10:53 Sunny 84 28.9 50 10 31 31 VRB 5 7 29.83 1010 10 16 0.00 0.00
11:53 am 11:53 Sunny 87 30.6 47 8.3 25 25 VRB 5 7 29.80 1009 10 16 0.00 0.00
12:53 pm 12:53 Sunny 92 33.3 45 7.2 20 20 Calm 29.77 1008 10 16 0.00 0.00
1:53 pm 13:53 Sunny 95 35 42 5.6 16 16 Calm 29.74 1007 10 16 0.00 0.00
2:53 pm 14:53 Sunny 96 35.6 40 4.4 14 14 W 6 9 29.70 1006 10 16 0.00 0.00
3:53 pm 15:53 Sunny 97 36.1 37 2.8 12 12 SSW 8 13 29.66 1005 10 16 0.00 0.00
4:53 pm 16:53 Sunny 96 35.6 39 3.9 14 14 Calm 29.63 1003 10 16 0.00 0.00
5:53 pm 17:53 Cloudy 95 35 40 4.4 15 15 SW 5 7 29.60 1003 10 16 0.00 0.00
6:53 pm 18:53 Cloudy 85 29.4 54 12.2 35 35 S 9 15 29.61 1003 8 13 0.00 0.00
7:53 pm 19:53 Clear 83 28.3 54 12.2 37 37 SSE 6 9 29.62 1003 9 14 0.00 0.00
8:53 pm 20:53 Cloudy 81 27.2 54 12.2 39 39 SSE 6 9 29.62 1003 10 16 0.00 0.00
9:53 pm 21:53 Clear 79 26.1 55 12.8 44 44 NNW 6 9 29.65 1004 9 14 0.00 0.00
10:53 pm 22:53 Clear 79 26.1 55 12.8 44 44 Calm 29.65 1004 9 14 0.00 0.00
11:53 pm 23:53 Clear 79 26.1 54 12.2 42 42 N 3 6 29.65 1004 9 14 0.00 0.00

Powered by AerisWeather